Regional Weather Roundup
Issued by NWS

Home | Current Version | Previous Version | Graphics & Text | Print | Product List | Glossary On
Versions: 1 2 3 4 5 6 7 8 9 10 11 12 13 14 15 16 17 18 19 20 21 22 23 24 25 26 27 28 29 30 31 32 33 34 35 36 37 38 39 40 41 42 43 44 45 46 47 48 49 50
000
ASUS43 KIND 162310
RWRIN

WEATHER ROUNDUP FOR INDIANA
NATIONAL WEATHER SERVICE INDIANAPOLIS IN
700 PM EDT WED AUG 16 2017

NOTE: "FAIR" INDICATES FEW OR NO CLOUDS BELOW 12,000 FEET WITH NO
SIGNIFICANT WEATHER AND/OR OBSTRUCTIONS TO VISIBILITY.

* - STATION DOES NOT REPORT WEATHER SUCH AS PRECIPITATION OR FOG.

+ - STATION NOT QUALITY CONTROLLED BY THE NATIONAL WEATHER SERVICE.
    USE DATA WITH CAUTION...ESPECIALLY DEWPOINT AND RELATIVE
    HUMIDITY OBSERVATIONS.

INZ001>003-010>013-019-020-170000-
NORTHWEST INDIANA

CITY           SKY/WX    TMP DP  RH WIND       PRES   REMARKS
GARY /AIRPORT/ CLOUDY    84  70  61 S5        29.90F
KNOX *+        CLOUDY    82  70  65 S6        29.92F
LA PORTE +     CLOUDY    83  69  63 SE5       29.93F
MICHIGAN CITY+ CLOUDY    82  68  61 S3        29.92F
MONTICELLO +   CLOUDY    83  71  65 S3        29.92S
RENSSELAER +   CLOUDY    81  70  69 SE3       29.91F
VALPARAISO     CLOUDY    84  71  65 S5        29.92F

$$

LMZ046-743>745-170000-
SOUTHERN LAKE MICHIGAN

STATION/POSITION TIME  TEMP    WIND        PRES    WAVE
                       AIR SEA DIR/SP/G            HT
                 (UTC) (F)     (DEG/KT/KT) (MB)    (FT)
BURNS HARBOR     2240   85     180/  6/ 12 1012.9F
MICHIGAN CITY    2240   85     170/ 11/ 14   N/A
5NW MICH CITY    2300   81 76  180/  6/  8   N/A     1

$$

INZ004-005-014>016-021>024-170000-
NORTH CENTRAL INDIANA

CITY           SKY/WX    TMP DP  RH WIND       PRES   REMARKS
GOSHEN         MOSUNNY   85  65  51 S6        29.94S
LOGANSPORT +   CLOUDY    82  72  69 SW5       29.94F
PERU/GRISSOM   PTSUNNY   84  72  66 S6        29.93F
ROCHESTER +    MOSUNNY  N/A N/A N/A S3        29.94F
SOUTH BEND     SUNNY     84  68  58 S10       29.93F
WARSAW +       MOSUNNY   84  64  51 S3        29.95R

$$

INZ006>009-017-018-025>027-170000-
NORTHEAST INDIANA

CITY           SKY/WX    TMP DP  RH WIND       PRES   REMARKS
AUBURN +       MOSUNNY   86  63  45 E5        29.96F
FORT WAYNE     MOSUNNY   87  65  47 S8        29.96R
HUNTINGTON +   MOSUNNY   86  66  52 S5        29.95S
KENDALLVILLE + SUNNY     84  67  55 SE6       29.96F

$$

INZ028-029-035-036-043>045-051>053-170000-
WEST CENTRAL INDIANA

CITY           SKY/WX    TMP DP  RH WIND       PRES   REMARKS
GREENCASTLE +  CLOUDY    82  70  65 S6        29.95F
LAFAYETTE      CLOUDY    84  72  67 S7        29.91F
TERRE HAUTE    CLOUDY    83  72  69 S6        29.93F

$$

INZ030>032-037>040-046>048-054>057-064-065-170000-
CENTRAL INDIANA

CITY           SKY/WX    TMP DP  RH WIND       PRES   REMARKS
CP ATTERBURY + SUNNY     82  70  65 SW5       29.96S
COLUMBUS       SUNNY     86  64  48 SW9       29.95S
FRANKFORT +    CLOUDY    85  74  68 CALM      29.96S
GREENWOOD *+   MOSUNNY   87  68  53 SW7       29.96S
INDIANAPOLIS   PTSUNNY   86  69  56 S13       29.94S
-EAGLE CREEK   SUNNY     87  67  51 S6        29.94S
KOKOMO +       MOSUNNY   82  71  69 SE6       29.95F
MARION +       SUNNY     84  66  54 S5        29.96S HAZE
MT COMFORT *+  SUNNY     84  70  61 S7        29.96S
SHELBYVILLE    SUNNY     86  70  58 S7        29.95S
ZIONSVILLE +   SUNNY     84  69  60 SW7       29.96S

$$

INZ033-034-041-042-049-050-058-059-170000-
EAST CENTRAL INDIANA

CITY           SKY/WX    TMP DP  RH WIND       PRES   REMARKS
MUNCIE         MOSUNNY   88  67  49 SW5       29.96S
RICHMOND +     PTSUNNY   82  70  65 CALM      29.99S

$$

INZ060-061-067>069-081>083-085>088-170000-
SOUTHWEST INDIANA

CITY           SKY/WX    TMP DP  RH WIND       PRES   REMARKS
EVANSVILLE     CLOUDY    87  74  64 SE7       29.93F HX  95
HUNTINGBURG +  CLOUDY    85  77  77 SE5       29.95F HX  95
WASHINGTON +   CLOUDY    84  71  66 MISG      29.93F

$$

INZ062-063-066-070>080-084-089>092-170000-
SOUTH CENTRAL AND SOUTHEAST INDIANA

CITY           SKY/WX    TMP DP  RH WIND       PRES   REMARKS
BEDFORD +      CLOUDY    84  70  61 SW5       29.95F
BLOOMINGTON    CLOUDY    85  70  60 S9        29.96F
MADISON *+     SUNNY     86  68  54 S3        29.98S
NORTH VERNON + CLOUDY    82  72  69 S3        29.96S
SEYMOUR +      MOSUNNY   86  70  58 SW5       29.95S

$$





USA.gov is the U.S. government's official web portal to all federal, state and local government web resources and services.